Regional Weather Roundup
Issued by NWS

Home | Current Version | Previous Version | Text Only | Print | Product List | Glossary On
Versions: 1 2 3 4 5 6 7 8 9 10 11 12 13 14 15 16 17 18 19 20 21 22 23 24 25 26 27
000
ASUS44 KBMX 270110
RWRAL

ALABAMA REGIONAL WEATHER ROUNDUP
NATIONAL WEATHER SERVICE BIRMINGHAM AL
800 PM CDT TUE JUL 26 2016

NOTE: "FAIR" INDICATES FEW OR NO CLOUDS BELOW 12,000 FEET
WITH NO SIGNIFICANT WEATHER AND/OR OBSTRUCTIONS TO VISIBILITY.

THE REMARK "TC" DENOTES TEMPERATURE IN DEGREES CELSIUS.

ALZ001>011-014-016>018-020-270200-
NORTH ALABAMA

CITY           SKY/WX    TMP DP  RH WIND       PRES   REMARKS
MUSCLE SHOALS  PTCLDY    84  73  69 SE3       29.96R HX  90
HUNTSVILLE     PTCLDY    90  67  46 S5        29.96R HX  93
DECATUR        CLEAR     84  74  71 SE5       29.96R HX  91
HALEYVILLE     FAIR      83  71  67 CALM      30.00R
GADSDEN        CLEAR     87  72  60 CALM        N/A  HX  93
$$

ALZ012-013-022-023-030>036-040>044-270200-
WEST CENTRAL ALABAMA

CITY           SKY/WX    TMP DP  RH WIND       PRES   REMARKS
TUSCALOOSA     PTCLDY    83  73  72 SE10      29.95S
$$

ALZ015-024>027-033>036-040>044-270200-
CENTRAL ALABAMA

CITY           SKY/WX    TMP DP  RH WIND       PRES   REMARKS
BIRMINGHAM     PTCLDY    86  74  67 S7        30.00S HX  94
MONTGOMERY     PTCLDY    79  75  87 CALM      29.99S
SHELBY CO ARPT CLEAR     84  73  69 S7        29.99R HX  90
MAXWELL AFB    PTCLDY    80  74  80 SW3       29.99R
GREENVILLE     NOT AVBL
$$

ALZ019-021-028-029-037-038-045>048-270200-
EAST CENTRAL ALABAMA

CITY           SKY/WX    TMP DP  RH WIND       PRES   REMARKS
ANNISTON       PTCLDY    87  71  58 SW9       29.99R HX  93
ALEXANDER CITY CLOUDY    87  80  77 S7        30.01S HX 102
AUBURN         PTCLDY    79  74  84 S9        30.05R
$$

ALZ051>064-270200-
SOUTHWEST ALABAMA

CITY           SKY/WX    TMP DP  RH WIND       PRES   REMARKS
MOBILE         CLOUDY    77  75  93 SW6       29.98R
BROOKLEY FIELD CLOUDY    79  77  94 VRB3      29.98R
EVERGREEN      PTCLDY    78  75  90 S3        30.00R
$$

ALZ049-050-065>069-270200-
SOUTHEAST ALABAMA

CITY           SKY/WX    TMP DP  RH WIND       PRES   REMARKS
DOTHAN         CLOUDY    79  75  87 S6        30.06S
OZARK          DRIZZLE   79  77  94 S5        30.03R
TROY           MOCLDY    78  76  93 S3        30.02R
EUFAULA        MOCLDY    80  75  84 S5        30.02R
$$




USA.gov is the U.S. government's official web portal to all federal, state and local government web resources and services.